| time (UTC) | temp F | wind direction | speed knots | gust knots | rain 1hr in | rain 24hr in | rain mn in | humidity % | barometer mb |
| 20260509013101 | 55 | 360 | 3.5 | 6.1 | 0.01 | 0.05 | 0.05 | 1 | 1008.7 |
| 20260509011551 | 55 | 360 | 3.5 | 7.0 | 0.01 | 0.05 | 0.05 | 1 | 1008.7 |
| 20260509010049 | 55 | 211 | 4.3 | 7.0 | 0.01 | 0.05 | 0.05 | 1 | 1008.8 |
| 20260509004543 | 55 | 209 | 0.9 | 3.5 | 0.00 | 0.04 | 0.04 | 1 | 1008.7 |
| 20260509003050 | 55 | 360 | 1.7 | 4.3 | 0.00 | 0.04 | 0.04 | 1 | 1008.8 |
| 20260509001534 | 55 | 360 | 1.7 | 5.2 | 0.00 | 0.04 | 0.04 | 1 | 1008.9 |
| 20260509000037 | 55 | 211 | 0.9 | 3.5 | 0.00 | 0.04 | 0.04 | 1 | 1008.9 |
| 20260508234534 | 54 | 210 | 0.9 | 2.6 | 0.01 | 0.04 | 0.04 | 1 | 1008.8 |
| 20260508233020 | 54 | 360 | 0.9 | 2.6 | 0.02 | 0.04 | 0.04 | 1 | 1008.8 |
| 20260508231516 | 54 | 209 | 1.7 | 5.2 | 0.02 | 0.04 | 0.04 | 1 | 1008.8 |
| 20260508230012 | 54 | 214 | 3.5 | 6.1 | 0.02 | 0.04 | 0.04 | 1 | 1008.8 |
| 20260508224507 | 54 | 360 | 0.9 | 5.2 | 0.01 | 0.03 | 0.03 | 1 | 1009.2 |
| 20260508223007 | 53 | 232 | 1.7 | 2.6 | 0.00 | 0.02 | 0.02 | 1 | 1009.2 |
| 20260508221506 | 54 | 331 | 0.0 | 3.5 | 0.01 | 0.02 | 0.02 | 1 | 1009.1 |
| 20260508220001 | 53 | 10 | 2.6 | 5.2 | 0.01 | 0.02 | 0.02 | 1 | 1009.0 |
| 20260508214608 | 54 | 5 | 0.9 | 5.2 | 0.02 | 0.02 | 0.02 | 1 | 1009.1 |
| 20260508213053 | 55 | 259 | 1.7 | 5.2 | 0.02 | 0.02 | 0.02 | 1 | 1009.4 |
| 20260508211549 | 57 | 13 | 1.7 | 4.3 | 0.01 | 0.01 | 0.01 | 1 | 1009.3 |
| 20260508210045 | 58 | 19 | 0.9 | 5.2 | 0.01 | 0.01 | 0.01 | 1 | 1009.2 |
| 20260508204542 | 59 | 360 | 2.6 | 7.0 | 0.00 | 0.00 | 0.00 | 20 | 1009.4 |
| 20260508203039 | 59 | 254 | 2.6 | 7.0 | 0.00 | 0.00 | 0.00 | 26 | 1009.3 |
| 20260508201637 | 60 | 306 | 0.9 | 5.2 | 0.00 | 0.00 | 0.00 | 29 | 1009.4 |
| 20260508200037 | 60 | 288 | 2.6 | 8.7 | 0.00 | 0.00 | 0.00 | 43 | 1009.5 |
| 20260508194607 | 60 | 360 | 4.3 | 10.4 | 0.00 | 0.00 | 0.00 | 49 | 1009.4 |
| 20260508193036 | 62 | 217 | 7.8 | 11.3 | 0.00 | 0.00 | 0.00 | 55 | 1009.4 |
| 20260508191535 | 63 | 194 | 7.8 | 16.5 | 0.00 | 0.00 | 0.00 | 55 | 1009.2 |
| 20260508190033 | 65 | 360 | 8.7 | 13.9 | 0.00 | 0.00 | 0.00 | 52 | 1009.3 |
| 20260508184534 | 65 | 360 | 5.2 | 10.4 | 0.00 | 0.00 | 0.00 | 51 | 1009.5 |
| 20260508183030 | 66 | 192 | 9.6 | 13.9 | 0.00 | 0.00 | 0.00 | 50 | 1009.7 |
| 20260508181540 | 65 | 360 | 8.7 | 18.2 | 0.00 | 0.00 | 0.00 | 50 | 1009.7 |
| 20260508180026 | 65 | 360 | 7.0 | 13.0 | 0.00 | 0.00 | 0.00 | 51 | 1009.9 |
| 20260508174522 | 64 | 219 | 7.8 | 15.6 | 0.00 | 0.00 | 0.00 | 51 | 1010.2 |
| 20260508173033 | 63 | 221 | 5.2 | 15.6 | 0.00 | 0.00 | 0.00 | 52 | 1010.5 |
| 20260508171524 | 63 | 216 | 7.8 | 12.2 | 0.00 | 0.00 | 0.00 | 52 | 1010.7 |
| 20260508170014 | 63 | 360 | 7.0 | 13.0 | 0.00 | 0.00 | 0.00 | 51 | 1011.0 |
| 20260508164516 | 62 | 239 | 4.3 | 8.7 | 0.00 | 0.00 | 0.00 | 53 | 1011.2 |
| 20260508163010 | 62 | 360 | 5.2 | 10.4 | 0.00 | 0.00 | 0.00 | 53 | 1011.6 |
| 20260508161504 | 61 | 242 | 6.1 | 11.3 | 0.00 | 0.00 | 0.00 | 53 | 1012.1 |
| 20260508160002 | 60 | 360 | 2.6 | 7.8 | 0.00 | 0.00 | 0.00 | 53 | 1012.2 |
| 20260508154601 | 60 | 296 | 6.1 | 10.4 | 0.00 | 0.00 | 0.00 | 53 | 1012.5 |
| 20260508153057 | 59 | 236 | 5.2 | 9.6 | 0.00 | 0.00 | 0.00 | 53 | 1012.7 |
| 20260508151605 | 57 | 238 | 4.3 | 8.7 | 0.00 | 0.00 | 0.00 | 52 | 1012.6 |
| 20260508150050 | 56 | 360 | 5.2 | 8.7 | 0.00 | 0.00 | 0.00 | 50 | 1012.7 |
| 20260508144549 | 55 | 209 | 5.2 | 9.6 | 0.00 | 0.00 | 0.00 | 52 | 1012.9 |
| 20260508143049 | 55 | 360 | 6.1 | 11.3 | 0.00 | 0.00 | 0.00 | 53 | 1012.9 |
| 20260508141544 | 55 | 360 | 7.0 | 11.3 | 0.00 | 0.00 | 0.00 | 49 | 1012.8 |
| 20260508140039 | 53 | 201 | 4.3 | 7.8 | 0.00 | 0.00 | 0.00 | 37 | 1012.7 |
| 20260508134536 | 52 | 213 | 4.3 | 7.0 | 0.00 | 0.00 | 0.00 | 34 | 1012.9 |
| 20260508133050 | 52 | 211 | 4.3 | 7.0 | 0.00 | 0.00 | 0.00 | 41 | 1012.7 |
| 20260508131534 | 52 | 218 | 4.3 | 7.0 | 0.00 | 0.00 | 0.00 | 42 | 1012.9 |
| 20260508130033 | 51 | 216 | 3.5 | 6.1 | 0.00 | 0.00 | 0.00 | 40 | 1013.0 |
| 20260508124531 | 51 | 219 | 3.5 | 5.2 | 0.00 | 0.00 | 0.00 | 41 | 1012.9 |
| 20260508123037 | 51 | 360 | 2.6 | 7.0 | 0.00 | 0.00 | 0.00 | 41 | 1013.0 |
| 20260508121530 | 51 | 226 | 4.3 | 8.7 | 0.00 | 0.00 | 0.00 | 42 | 1013.0 |
| 20260508120030 | 51 | 360 | 5.2 | 7.0 | 0.00 | 0.00 | 0.00 | 46 | 1013.0 |
| 20260508114528 | 51 | 219 | 5.2 | 7.8 | 0.00 | 0.00 | 0.00 | 51 | 1012.9 |
| 20260508113031 | 51 | 237 | 5.2 | 9.6 | 0.00 | 0.00 | 0.00 | 51 | 1012.7 |
| 20260508111528 | 51 | 212 | 5.2 | 9.6 | 0.00 | 0.00 | 0.00 | 52 | 1012.4 |
| 20260508110030 | 51 | 256 | 5.2 | 10.4 | 0.00 | 0.00 | 0.00 | 53 | 1012.4 |
| 20260508104525 | 51 | 245 | 5.2 | 9.6 | 0.00 | 0.00 | 0.00 | 52 | 1012.4 |
| 20260508103025 | 50 | 199 | 2.6 | 7.0 | 0.00 | 0.00 | 0.00 | 48 | 1012.4 |
| 20260508101524 | 50 | 229 | 1.7 | 6.1 | 0.00 | 0.00 | 0.00 | 48 | 1012.3 |
| 20260508100026 | 49 | 217 | 3.5 | 5.2 | 0.00 | 0.00 | 0.00 | 48 | 1012.2 |
| 20260508094523 | 49 | 220 | 4.3 | 6.1 | 0.00 | 0.00 | 0.00 | 50 | 1012.2 |
| 20260508093024 | 49 | 238 | 3.5 | 7.0 | 0.00 | 0.00 | 0.00 | 51 | 1012.3 |
| 20260508091526 | 49 | 360 | 4.3 | 6.1 | 0.00 | 0.00 | 0.00 | 52 | 1012.2 |
| 20260508090023 | 50 | 221 | 4.3 | 7.0 | 0.00 | 0.00 | 0.00 | 53 | 1012.4 |
| 20260508084518 | 50 | 225 | 4.3 | 7.8 | 0.00 | 0.00 | 0.00 | 54 | 1012.6 |
| 20260508083018 | 50 | 360 | 5.2 | 10.4 | 0.00 | 0.00 | 0.00 | 54 | 1012.4 |
| 20260508081522 | 50 | 234 | 6.1 | 11.3 | 0.00 | 0.00 | 0.00 | 54 | 1012.4 |
| 20260508080018 | 50 | 227 | 7.0 | 11.3 | 0.00 | 0.00 | 0.00 | 54 | 1012.5 |
| 20260508074516 | 50 | 360 | 7.0 | 12.2 | 0.00 | 0.00 | 0.00 | 54 | 1012.5 |
| 20260508073013 | 50 | 360 | 5.2 | 10.4 | 0.00 | 0.00 | 0.00 | 53 | 1012.6 |
| 20260508071517 | 50 | 213 | 5.2 | 8.7 | 0.00 | 0.00 | 0.00 | 54 | 1012.7 |
| 20260508070010 | 50 | 225 | 5.2 | 7.8 | 0.00 | 0.00 | 0.00 | 53 | 1012.8 |
| 20260508064510 | 50 | 213 | 3.5 | 8.7 | 0.00 | 0.00 | 0.00 | 50 | 1012.8 |
| 20260508063007 | 50 | 228 | 4.3 | 7.8 | 0.00 | 0.00 | 0.00 | 49 | 1012.9 |
| 20260508061515 | 50 | 360 | 3.5 | 7.8 | 0.00 | 0.00 | 0.00 | 44 | 1013.0 |
| 20260508060005 | 49 | 360 | 4.3 | 5.2 | 0.00 | 0.00 | 0.00 | 37 | 1013.1 |
| 20260508054503 | 48 | 360 | 2.6 | 4.3 | 0.00 | 0.00 | 0.00 | 30 | 1013.3 |
| 20260508053002 | 49 | 227 | 0.9 | 3.5 | 0.00 | 0.00 | 0.00 | 34 | 1013.3 |
| 20260508051600 | 49 | 360 | 0.9 | 5.2 | 0.00 | 0.00 | 0.00 | 40 | 1013.4 |
| 20260508050055 | 50 | 226 | 0.0 | 5.2 | 0.00 | 0.00 | 0.00 | 45 | 1013.4 |
| 20260508044604 | 51 | 360 | 3.5 | 4.3 | 0.00 | 0.00 | 0.00 | 49 | 1013.3 |
| 20260508043102 | 51 | 10 | 0.0 | 3.5 | 0.00 | 0.00 | 0.00 | 46 | 1013.5 |
| 20260508041554 | 51 | 311 | 2.6 | 8.7 | 0.00 | 0.00 | 0.00 | 45 | 1013.4 |
| 20260508040047 | 51 | 219 | 5.2 | 8.7 | 0.00 | 0.00 | 0.00 | 43 | 1013.0 |
| 20260508034552 | 51 | 360 | 4.3 | 7.0 | 0.00 | 0.00 | 0.00 | 35 | 1012.9 |
| 20260508033043 | 51 | 205 | 3.5 | 6.1 | 0.00 | 0.00 | 0.00 | 34 | 1012.9 |
| 20260508031543 | 50 | 360 | 4.3 | 6.1 | 0.00 | 0.00 | 0.00 | 31 | 1013.0 |
| 20260508030046 | 50 | 360 | 3.5 | 6.1 | 0.00 | 0.00 | 0.00 | 25 | 1013.0 |
| 20260508024545 | 50 | 360 | 2.6 | 6.1 | 0.00 | 0.00 | 0.00 | 25 | 1013.1 |
| 20260508023040 | 50 | 214 | 2.6 | 5.2 | 0.00 | 0.00 | 0.00 | 21 | 1013.3 |
| 20260508021539 | 50 | 232 | 1.7 | 4.3 | 0.00 | 0.00 | 0.00 | 23 | 1013.3 |
| 20260508020044 | 50 | 217 | 0.9 | 4.3 | 0.00 | 0.00 | 0.00 | 28 | 1013.2 |
| 20260508014537 | 51 | 215 | 1.7 | 4.3 | 0.00 | 0.00 | 0.00 | 29 | 1013.1 |